Weather in Kunjya

Russia / Pskov Oblast     56°17′21″N   30°58′24″E
В апреле 2022 года жителям России запретили посещать сайт meteo.paraplan.net по решению Генеральной прокуратуры. Аудитория сайта уменьшилась в 10 раз. Владельцы сайта не видят смысла в поддержке погодного сервера в таких условиях. Сайт будет закрыт в октябре.
temp.,
°C
wind,
m/s
gust,
m/s
humid.,
%
clouds,
%
prec.,
mm/h
press.,
hPa
HPBL,
m
25 september, sun
sun2500:00+7nnw61377100 0.1 10071086
03:00+7nw61280100 0.1 1006962
06:00+6nw51286100 0.3 1007795
09:00+6nw51291100 0.8 1007706
12:00+7nw41087100 0.5 1007795
15:00+9n3880100 0.6 1008846
18:00+7n2792100 0.1 1008475
21:00+7nw149491 0.3 1009263
26 september, mon
mon2600:00+6wsw129657 0.0 100981
03:00+6wsw119291 0.0 100928
06:00+6wsw118891 0.0 100913
09:00+8wsw128019 0.0 1010189
12:00+12w246047 0.0 10101159
15:00+13wnw2459100 0.1 10101329
18:00+10e1169100 0.0 101011
21:00+9e2275100 0.0 101133
27 september, tue
tue2700:00+8e2378100 0.0 101185
03:00+6ene228867 0.0 101139
06:00+5ene2391100 0.0 101154
09:00+8ene237412 0.0 1010182
12:00+12ene225720 0.0 1010807
15:00+14e215385 0.0 10091390
18:00+11ene2465100 0.0 100880
21:00+9e3777100 0.0 1009230
28 september, wed
wed2800:00+8e3885100 0.0 1008268
03:00+8e3987100 0.0 1007327
06:00+8e41091100 0.1 1006423
09:00+9e51280100 0.1 1004672
12:00+10ene51072100 0.0 1003827
15:00+7ene41091100 0.4 1002722
18:00+7ne3893100 0.4 1002608
21:00+7nne2495100 0.6 1002315
29 september, thu
thu2900:00+7wnw1196100 0.1 100372
03:00+7wsw239795 0.1 1004155
06:00+7sw2497100 0.0 1005212
09:00+8ssw369267 0.0 1007306
12:00+12ssw35725 0.0 1009737
15:00+15s475942 0.0 10091242
18:00+13sse386963 0.0 1010366
21:00+12sse41181100 0.1 1012600